User: anonymous   Login
Location: Unspecified
(0.0000°N, 0.0000°E)
Time: 07:27:11
(UTC+00:00)
Language:

DMSP 5D-3 F18 (USA 210) - Orbit

View from above orbital plane
View from above orbital plane
View from above satellite
View from above satellite

Ground track
Ground track

The orbit data is extracted from the following two-line orbital elements,

1 35951U 09057A   20224.89876147 +.00000104 +00000-0 +78002-4 0  9990
2 35951 098.6475 212.9325 0010398 204.6826 155.3850 14.13292039331511
Epoch (UTC): 11 August 2020 21:34:12
Eccentricity: 0.0010398
inclination: 98.6475°
perigee height: 840 km
apogee height: 855 km
right ascension of ascending node: 212.9325°
argument of perigee: 204.6826°
revolutions per day: 14.13292039
mean anomaly at epoch: 155.3850°
orbit number at epoch: 33151

The dashed part of the orbit path shows where the satellite is in the earth's shadow,  

DLR